When you browse on this site, cookies collect data to enhance your experience and personalize the content and advertising you see.
Visit our Privacy Policy to learn more. By continuing to use the site, you agree to this use of cookies and data.
  • In Hungary
  • List of Countries
  • For 7 days
  • Water Temperature
  • Satellite Maps
  • Weather Map
  • News
  • Weather Widgets
  • user-avatar
    Login

    Hourly Weather Sovetskij

    Today, 18 November, Sunday

    Time Temperature Precipitation Wind Pressure Humidity
    00:00 +3°C° 0 mm 3 mps 757 mmHg 90%
    01:00 +4°C° 0 mm 2 mps 756 mmHg 90%
    02:00 +4°C° 0 mm 2 mps 756 mmHg 91%
    03:00 +4°C° 0 mm 2 mps 756 mmHg 91%
    04:00 +4°C° 0 mm 2 mps 756 mmHg 91%
    05:00 +4°C° 0 mm 2 mps 756 mmHg 91%
    06:00 +4°C° 0 mm 2 mps 756 mmHg 90%
    07:00 +4°C° 0 mm 2 mps 755 mmHg 90%
    08:00 +4°C° 0 mm 2 mps 755 mmHg 90%
    09:00 +5°C° 0 mm 2 mps 755 mmHg 86%
    10:00 +5°C° 0 mm 2 mps 755 mmHg 83%
    11:00 +7°C° 0 mm 1 mps 755 mmHg 79%
    12:00 +7°C° 0 mm 1 mps 754 mmHg 78%
    13:00 +6°C° 0 mm 2 mps 754 mmHg 77%
    14:00 +6°C° 0 mm 2 mps 754 mmHg 76%
    15:00 +6°C° 0 mm 2 mps 754 mmHg 78%
    16:00 +5°C° 0 mm 2 mps 753 mmHg 81%
    17:00 +5°C° 0 mm 2 mps 753 mmHg 84%
    18:00 +5°C° 0 mm 2 mps 753 mmHg 85%
    19:00 +4°C° 0 mm 3 mps 753 mmHg 86%
    20:00 +4°C° 0 mm 3 mps 753 mmHg 87%
    21:00 +4°C° 0 mm 3 mps 752 mmHg 88%
    22:00 +4°C° 0 mm 3 mps 752 mmHg 88%
    23:00 +4°C° 0 mm 4 mps 752 mmHg 89%

    Tomorrow, 19 November, Monday

    Time Temperature Precipitation Wind Pressure Humidity
    00:00 +3°C° 0 mm 4 mps 752 mmHg 90%
    01:00 +3°C° 0 mm 4 mps 751 mmHg 91%
    02:00 +3°C° 0 mm 4 mps 751 mmHg 92%
    03:00 +3°C° 0 mm 4 mps 751 mmHg 91%
    04:00 +2°C° 0 mm 5 mps 750 mmHg 91%
    05:00 +2°C° 0 mm 5 mps 750 mmHg 90%
    06:00 +2°C° 0.2 mm 5 mps 750 mmHg 88%
    07:00 +2°C° 0.2 mm 5 mps 750 mmHg 86%
    08:00 +3°C° 0.2 mm 6 mps 750 mmHg 84%
    09:00 +3°C° 0.6 mm 6 mps 749 mmHg 84%
    10:00 +3°C° 0.6 mm 6 mps 749 mmHg 84%
    11:00 +3°C° 0.6 mm 6 mps 749 mmHg 84%
    12:00 +4°C° 1 mm 6 mps 748 mmHg 86%
    13:00 +4°C° 1 mm 6 mps 748 mmHg 88%
    14:00 +5°C° 1 mm 6 mps 747 mmHg 90%
    15:00 +6°C° 0.6 mm 7 mps 747 mmHg 90%
    16:00 +8°C° 0.6 mm 7 mps 747 mmHg 89%
    17:00 +9°C° 0.6 mm 7 mps 746 mmHg 89%
    18:00 +9°C° 1.5 mm 7 mps 746 mmHg 89%
    19:00 +9°C° 1.5 mm 6 mps 746 mmHg 89%
    20:00 +10°C° 1.5 mm 6 mps 746 mmHg 89%
    21:00 +10°C° 0.2 mm 6 mps 746 mmHg 91%
    22:00 +10°C° 0.2 mm 5 mps 746 mmHg 92%
    23:00 +10°C° 0.2 mm 5 mps 745 mmHg 93%

    Day after tomorrow, 20 November, Tuesday

    Time Temperature Precipitation Wind Pressure Humidity
    00:00 +10°C° 0 mm 5 mps 745 mmHg 92%
    01:00 +9°C° 0 mm 5 mps 745 mmHg 91%
    02:00 +8°C° 0 mm 5 mps 745 mmHg 90%
    03:00 +8°C° 0 mm 6 mps 745 mmHg 88%
    04:00 +8°C° 0 mm 6 mps 746 mmHg 86%
    05:00 +6°C° 0 mm 7 mps 746 mmHg 84%
    06:00 +6°C° 0 mm 7 mps 746 mmHg 83%
    07:00 +6°C° 0 mm 8 mps 747 mmHg 82%
    08:00 +5°C° 0 mm 8 mps 747 mmHg 81%
    09:00 +6°C° 0 mm 8 mps 747 mmHg 81%
    10:00 +6°C° 0 mm 8 mps 748 mmHg 81%
    11:00 +6°C° 0 mm 8 mps 748 mmHg 81%
    12:00 +6°C° 0 mm 8 mps 748 mmHg 81%
    13:00 +6°C° 0 mm 7 mps 749 mmHg 81%
    14:00 +6°C° 0 mm 7 mps 749 mmHg 81%
    15:00 +5°C° 0 mm 6 mps 749 mmHg 82%
    16:00 +6°C° 0 mm 5 mps 749 mmHg 83%
    17:00 +6°C° 0 mm 4 mps 750 mmHg 85%
    18:00 +5°C° 0 mm 4 mps 750 mmHg 86%
    19:00 +5°C° 0 mm 3 mps 750 mmHg 87%
    20:00 +6°C° 0 mm 2 mps 751 mmHg 88%
    21:00 +5°C° 0 mm 2 mps 751 mmHg 89%
    22:00 +5°C° 0 mm 2 mps 751 mmHg 90%
    23:00 +4°C° 0 mm 2 mps 751 mmHg 92%

    21 November, Wednesday

    Time Temperature Precipitation Wind Pressure Humidity
    00:00 +4°C° 0 mm 2 mps 751 mmHg 91%
    01:00 +5°C° 0 mm 1 mps 751 mmHg 91%
    02:00 +5°C° 0 mm 1 mps 751 mmHg 90%
    03:00 +4°C° 0 mm 2 mps 751 mmHg 91%
    04:00 +4°C° 0 mm 2 mps 750 mmHg 92%
    05:00 +4°C° 0 mm 2 mps 750 mmHg 93%
    06:00 +4°C° 0 mm 2 mps 750 mmHg 92%
    07:00 +4°C° 0 mm 2 mps 750 mmHg 91%
    08:00 +4°C° 0 mm 3 mps 751 mmHg 91%
    09:00 +4°C° 0.1 mm 3 mps 750 mmHg 87%
    10:00 +5°C° 0.1 mm 3 mps 750 mmHg 83%
    11:00 +7°C° 0.1 mm 3 mps 750 mmHg 79%
    12:00 +7°C° 0.1 mm 3 mps 750 mmHg 79%
    13:00 +6°C° 0.1 mm 4 mps 750 mmHg 78%
    14:00 +7°C° 0.1 mm 4 mps 749 mmHg 78%
    15:00 +6°C° 0.1 mm 4 mps 749 mmHg 80%
    16:00 +6°C° 0.1 mm 4 mps 749 mmHg 83%
    17:00 +5°C° 0.1 mm 4 mps 749 mmHg 86%
    18:00 +5°C° 0.1 mm 5 mps 749 mmHg 87%
    19:00 +5°C° 0.1 mm 5 mps 749 mmHg 87%
    20:00 +5°C° 0.1 mm 5 mps 749 mmHg 87%
    21:00 +5°C° 0.1 mm 5 mps 749 mmHg 87%
    22:00 +3°C° 0.1 mm 5 mps 749 mmHg 86%
    23:00 +3°C° 0.1 mm 5 mps 749 mmHg 86%

    22 November, Thursday

    Time Temperature Precipitation Wind Pressure Humidity
    00:00 +3°C° 0.1 mm 5 mps 749 mmHg 86%
    01:00 +3°C° 0.1 mm 5 mps 749 mmHg 87%
    02:00 +3°C° 0.1 mm 5 mps 749 mmHg 87%
    03:00 +3°C° 0.2 mm 5 mps 749 mmHg 87%
    04:00 +3°C° 0.2 mm 6 mps 749 mmHg 87%
    05:00 +3°C° 0.2 mm 6 mps 749 mmHg 87%
    06:00 +3°C° 0.3 mm 6 mps 749 mmHg 87%
    07:00 +3°C° 0.3 mm 6 mps 749 mmHg 87%
    08:00 +3°C° 0.3 mm 6 mps 750 mmHg 86%
    09:00 +3°C° 0.2 mm 6 mps 750 mmHg 85%
    10:00 +3°C° 0.2 mm 6 mps 750 mmHg 83%
    11:00 +3°C° 0.2 mm 6 mps 750 mmHg 82%
    12:00 +3°C° 0 mm 6 mps 750 mmHg 82%
    13:00 +3°C° 0 mm 7 mps 750 mmHg 82%
    14:00 +3°C° 0 mm 7 mps 750 mmHg 81%
    15:00 +3°C° 0 mm 6 mps 750 mmHg 82%
    16:00 +2°C° 0 mm 6 mps 750 mmHg 82%
    17:00 +2°C° 0 mm 6 mps 751 mmHg 82%
    18:00 +2°C° 0 mm 6 mps 751 mmHg 80%
    19:00 +2°C° 0 mm 6 mps 752 mmHg 79%
    20:00 +1°C° 0 mm 6 mps 752 mmHg 78%
    21:00 +1°C° 0 mm 5 mps 752 mmHg 78%
    22:00 0°C° 0 mm 5 mps 752 mmHg 79%
    23:00 0°C° 0 mm 5 mps 753 mmHg 80%

    23 November, Friday

    Time Temperature Precipitation Wind Pressure Humidity
    00:00 0°C° 0 mm 5 mps 753 mmHg 81%
    01:00 -1°C° 0 mm 5 mps 753 mmHg 82%
    02:00 -1°C° 0 mm 5 mps 753 mmHg 83%
    03:00 -1°C° 0 mm 5 mps 753 mmHg 84%
    04:00 -1°C° 0 mm 5 mps 754 mmHg 84%
    05:00 -1°C° 0 mm 5 mps 754 mmHg 84%
    06:00 -1°C° 0 mm 5 mps 754 mmHg 84%
    07:00 -1°C° 0 mm 5 mps 755 mmHg 83%
    08:00 -1°C° 0 mm 5 mps 755 mmHg 82%
    09:00 0°C° 0 mm 5 mps 755 mmHg 77%
    10:00 +1°C° 0 mm 5 mps 756 mmHg 73%
    11:00 +1°C° 0 mm 5 mps 756 mmHg 68%
    12:00 +1°C° 0 mm 5 mps 756 mmHg 67%
    13:00 +2°C° 0 mm 5 mps 756 mmHg 66%
    14:00 +2°C° 0 mm 5 mps 756 mmHg 64%
    15:00 +1°C° 0 mm 4 mps 756 mmHg 68%
    16:00 0°C° 0 mm 4 mps 756 mmHg 72%
    17:00 0°C° 0 mm 4 mps 757 mmHg 76%
    18:00 -1°C° 0 mm 4 mps 757 mmHg 78%
    19:00 0°C° 0 mm 3 mps 757 mmHg 80%
    20:00 0°C° 0 mm 3 mps 757 mmHg 82%
    21:00 0°C° 0 mm 3 mps 757 mmHg 83%
    22:00 0°C° 0 mm 3 mps 756 mmHg 84%
    23:00 0°C° 0 mm 3 mps 756 mmHg 86%
    Show more